TimeMDT,TemperatureF,Dew PointF,Humidity,Sea Level PressureIn,VisibilityMPH,Wind Direction,Wind SpeedMPH,Gust SpeedMPH,PrecipitationIn,Events,Conditions,WindDirDegrees,DateUTC
12:53 AM,45.0,39.9,82,29.73,10.0,ESE,4.6,-,N/A,,Clear,110,2012-10-13 06:53:00
1:53 AM,46.0,39.9,79,29.72,10.0,Calm,Calm,-,N/A,,Mostly Cloudy,0,2012-10-13 07:53:00
2:53 AM,46.9,39.9,77,29.70,10.0,South,4.6,-,N/A,,Mostly Cloudy,180,2012-10-13 08:53:00
3:53 AM,54.0,37.0,53,29.67,10.0,West,6.9,-,N/A,,Scattered Clouds,260,2012-10-13 09:53:00
4:53 AM,55.9,37.0,49,29.69,10.0,West,13.8,-,N/A,,Overcast,280,2012-10-13 10:53:00
5:53 AM,54.0,39.0,57,29.71,10.0,WNW,16.1,23.0,0.00,,Overcast,290,2012-10-13 11:53:00
6:53 AM,51.1,39.9,66,29.74,10.0,WNW,15.0,24.2,N/A,,Scattered Clouds,290,2012-10-13 12:53:00
7:53 AM,48.0,44.1,86,29.78,7.0,WNW,12.7,20.7,0.06,Rain,Light Rain,290,2012-10-13 13:53:00
8:53 AM,48.9,44.1,83,29.82,4.0,NW,8.1,-,0.02,Rain,Rain,320,2012-10-13 14:53:00
9:53 AM,48.9,46.0,90,29.82,10.0,WNW,9.2,-,0.03,,Overcast,290,2012-10-13 15:53:00
10:53 AM,53.1,48.0,83,29.83,10.0,WNW,10.4,-,N/A,,Overcast,300,2012-10-13 16:53:00
11:53 AM,57.0,46.0,67,29.83,10.0,NNW,12.7,19.6,0.00,Rain,Light Rain,340,2012-10-13 17:53:00
12:53 PM,59.0,44.1,58,29.82,10.0,Variable,3.5,-,0.00,,Overcast,0,2012-10-13 18:53:00
2:53 PM,68.0,39.9,36,29.78,10.0,West,10.4,-,N/A,,Clear,280,2012-10-13 20:53:00
3:53 PM,70.0,28.9,22,29.76,10.0,North,15.0,21.9,N/A,,Clear,350,2012-10-13 21:53:00
4:53 PM,68.0,30.0,24,29.78,10.0,NNW,11.5,-,N/A,,Scattered Clouds,340,2012-10-13 22:53:00
6:53 PM,62.1,30.9,31,29.86,10.0,North,15.0,-,N/A,,Partly Cloudy,360,2012-10-14 00:53:00
8:53 PM,60.1,33.1,36,29.93,10.0,North,8.1,-,N/A,,Scattered Clouds,350,2012-10-14 02:53:00
9:53 PM,55.9,35.1,45,29.99,10.0,NNE,4.6,-,N/A,,Overcast,20,2012-10-14 03:53:00
11:53 PM,55.0,33.1,43,30.01,10.0,NNW,6.9,-,N/A,,Mostly Cloudy,340,2012-10-14 05:53:00